SBI1021 UWUU-UWGG

Flight info

Callsign SBI1021
Flight time 1h 26m
Altitude 36000
Route TILMU N985 ORTIM L158 KOKAD N604 PESAB
Aircraft A321/M-S/L

Departure

Time 2026-05-08 20:03
Airport Ufa International Airport (UWUU)

Arrival

Time 2026-05-08 21:29
Airport Nizhny Novgorod / Strigino International Airport (UWGG)
Time Latitude Longitude Altitude Speed Heading
2026-05-08 19:40 54.56355 55.88425 385 ft 0 kts 60°
2026-05-08 19:51 54.56353 55.88416 384 ft 2 kts 68°
2026-05-08 19:52 54.56348 55.88392 384 ft 2 kts 70°
2026-05-08 19:52 54.56342 55.88367 384 ft 2 kts 68°
2026-05-08 19:52 54.56337 55.88343 383 ft 2 kts 69°
2026-05-08 19:53 54.56327 55.88325 383 ft 0 kts 344°
2026-05-08 19:53 54.56323 55.88329 383 ft 1 kts 327°
2026-05-08 19:53 54.56320 55.88332 383 ft 0 kts 330°
2026-05-08 19:54 54.56330 55.88322 383 ft 3 kts 331°
2026-05-08 19:54 54.56356 55.88297 383 ft 5 kts 331°
2026-05-08 19:55 54.56398 55.88255 383 ft 8 kts 321°
2026-05-08 19:55 54.56415 55.88158 383 ft 10 kts 244°
2026-05-08 19:55 54.56372 55.88029 383 ft 13 kts 240°
2026-05-08 19:55 54.56320 55.87873 383 ft 16 kts 240°
2026-05-08 19:56 54.56265 55.87704 387 ft 16 kts 240°
2026-05-08 19:56 54.56210 55.87540 391 ft 15 kts 240°
2026-05-08 19:56 54.56159 55.87385 395 ft 14 kts 240°
2026-05-08 19:56 54.56107 55.87235 399 ft 14 kts 239°
2026-05-08 19:57 54.56057 55.87080 402 ft 15 kts 242°
2026-05-08 19:57 54.56002 55.86908 406 ft 17 kts 240°
2026-05-08 19:57 54.55936 55.86710 408 ft 20 kts 240°
2026-05-08 19:57 54.55865 55.86487 411 ft 22 kts 251°
2026-05-08 19:58 54.55952 55.86274 408 ft 26 kts 329°
2026-05-08 19:58 54.56125 55.86087 401 ft 32 kts 330°
2026-05-08 19:58 54.56337 55.85889 396 ft 36 kts 334°
2026-05-08 19:58 54.56568 55.85668 388 ft 39 kts 329°
2026-05-08 19:59 54.56820 55.85419 380 ft 43 kts 331°
2026-05-08 19:59 54.57097 55.85166 373 ft 45 kts 332°
2026-05-08 19:59 54.57252 55.85051 366 ft 11 kts 359°
2026-05-08 19:59 54.57281 55.85057 366 ft 0 kts
2026-05-08 20:00 54.57282 55.85057 365 ft 0 kts
2026-05-08 20:00 54.57296 55.85053 365 ft 3 kts 339°
2026-05-08 20:00 54.57312 55.85027 364 ft 0 kts 303°
2026-05-08 20:01 54.57313 55.85023 364 ft 1 kts 300°
2026-05-08 20:01 54.57311 55.84981 363 ft 5 kts 235°
2026-05-08 20:02 54.57268 55.84980 364 ft 7 kts 154°
2026-05-08 20:02 54.57265 55.84983 364 ft 0 kts 153°
2026-05-08 20:02 54.57226 55.85020 366 ft 24 kts 150°
2026-05-08 20:02 54.56858 55.85368 380 ft 94 kts 151°
2026-05-08 20:03 54.56107 55.86095 402 ft 152 kts 151°
2026-05-08 20:03 54.55092 55.87114 691 ft 176 kts 150°
2026-05-08 20:03 54.54044 55.88156 1286 ft 180 kts 152°
2026-05-08 20:03 54.52955 55.89187 1946 ft 182 kts 147°
2026-05-08 20:04 54.52153 55.90822 2378 ft 186 kts 103°
2026-05-08 20:04 54.52312 55.92988 2655 ft 188 kts 56°
2026-05-08 20:04 54.53199 55.94682 2945 ft 196 kts 40°
2026-05-08 20:04 54.54206 55.96357 3173 ft 212 kts 42°
2026-05-08 20:05 54.55278 55.98247 3444 ft 229 kts 44°
2026-05-08 20:05 54.56405 56.00338 3835 ft 242 kts 45°
2026-05-08 20:05 54.57532 56.02493 4445 ft 245 kts 45°
2026-05-08 20:05 54.58657 56.04662 5090 ft 246 kts 45°
2026-05-08 20:06 54.59829 56.06832 5683 ft 250 kts 38°
2026-05-08 20:06 54.61386 56.08147 6012 ft 259 kts
2026-05-08 20:06 54.63170 56.07878 6528 ft 263 kts 338°
2026-05-08 20:06 54.64775 56.06432 7166 ft 265 kts 330°
2026-05-08 20:07 54.66389 56.04838 7805 ft 268 kts 330°
2026-05-08 20:07 54.68005 56.03261 8460 ft 270 kts 330°
2026-05-08 20:07 54.69627 56.01690 9102 ft 272 kts 330°
2026-05-08 20:07 54.71290 56.00084 9739 ft 274 kts 330°
2026-05-08 20:08 54.72951 55.98479 10261 ft 280 kts 330°
2026-05-08 20:08 54.74690 55.96801 10532 ft 295 kts 330°
2026-05-08 20:08 54.76506 55.94962 10793 ft 310 kts 324°
2026-05-08 20:08 54.77978 55.92170 11053 ft 323 kts 300°
2026-05-08 20:09 54.78689 55.88480 11483 ft 332 kts 278°
2026-05-08 20:09 54.78827 55.84495 12053 ft 336 kts 274°
2026-05-08 20:09 54.78925 55.80429 12572 ft 340 kts 274°
2026-05-08 20:09 54.79024 55.76353 13104 ft 343 kts 274°
2026-05-08 20:10 54.79127 55.72254 13617 ft 345 kts 274°
2026-05-08 20:10 54.79233 55.68058 14159 ft 348 kts 275°
2026-05-08 20:10 54.79340 55.63897 14658 ft 351 kts 275°
2026-05-08 20:10 54.79448 55.59648 15170 ft 353 kts 275°
2026-05-08 20:11 54.79556 55.55413 15663 ft 356 kts 275°
2026-05-08 20:11 54.79662 55.51164 16144 ft 358 kts 274°
2026-05-08 20:11 54.79770 55.46812 16623 ft 361 kts 275°
2026-05-08 20:11 54.79876 55.42499 17081 ft 363 kts 274°
2026-05-08 20:12 54.79982 55.38092 17544 ft 366 kts 274°
2026-05-08 20:12 54.80084 55.33738 17977 ft 369 kts 274°
2026-05-08 20:12 54.80188 55.29265 18405 ft 371 kts 274°
2026-05-08 20:12 54.80291 55.24804 18835 ft 373 kts 274°
2026-05-08 20:13 54.80394 55.20309 19256 ft 376 kts 274°
2026-05-08 20:13 54.80494 55.15798 19663 ft 379 kts 273°
2026-05-08 20:13 54.80594 55.11233 20063 ft 382 kts 273°
2026-05-08 20:13 54.80692 55.06642 20469 ft 384 kts 273°
2026-05-08 20:14 54.80789 55.02055 20881 ft 386 kts 273°
2026-05-08 20:14 54.80886 54.97403 21267 ft 389 kts 273°
2026-05-08 20:14 54.80982 54.92732 21656 ft 391 kts 273°
2026-05-08 20:14 54.81076 54.87995 22035 ft 393 kts 273°
2026-05-08 20:15 54.81168 54.83285 22407 ft 395 kts 273°
2026-05-08 20:15 54.81258 54.78521 22773 ft 397 kts 273°
2026-05-08 20:15 54.81349 54.73720 23125 ft 400 kts 273°
2026-05-08 20:15 54.81437 54.68937 23497 ft 401 kts 273°
2026-05-08 20:16 54.81524 54.64121 23876 ft 403 kts 273°
2026-05-08 20:16 54.81607 54.59300 24276 ft 403 kts 273°
2026-05-08 20:16 54.81690 54.54467 24653 ft 405 kts 273°
2026-05-08 20:16 54.81771 54.49594 24992 ft 406 kts 273°
2026-05-08 20:17 54.81851 54.44657 25332 ft 408 kts 273°
2026-05-08 20:17 54.81928 54.39788 25654 ft 410 kts 273°
2026-05-08 20:17 54.82004 54.34822 25985 ft 412 kts 272°
2026-05-08 20:17 54.82077 54.29894 26307 ft 413 kts 272°
2026-05-08 20:18 54.82154 54.24958 26624 ft 414 kts 274°
2026-05-08 20:18 54.82373 54.19976 26937 ft 415 kts 278°
2026-05-08 20:18 54.82812 54.15055 27241 ft 415 kts 282°
2026-05-08 20:18 54.83461 54.10204 27516 ft 416 kts 285°
2026-05-08 20:19 54.84204 54.05348 27813 ft 417 kts 286°
2026-05-08 20:19 54.84959 54.00486 28126 ft 418 kts 286°
2026-05-08 20:19 54.85702 53.95697 28420 ft 419 kts 286°
2026-05-08 20:19 54.86454 53.90813 28663 ft 420 kts 286°
2026-05-08 20:20 54.87205 53.85912 28916 ft 422 kts 286°
2026-05-08 20:20 54.87953 53.80995 29191 ft 423 kts 286°
2026-05-08 20:20 54.88699 53.76079 29425 ft 424 kts 287°
2026-05-08 20:20 54.89449 53.71118 29640 ft 426 kts 286°
2026-05-08 20:21 54.90192 53.66193 29932 ft 426 kts 287°
2026-05-08 20:21 54.90940 53.61225 30267 ft 424 kts 287°
2026-05-08 20:21 54.91689 53.56270 30597 ft 423 kts 287°
2026-05-08 20:21 54.92430 53.51344 30888 ft 423 kts 287°
2026-05-08 20:22 54.93169 53.46416 31150 ft 423 kts 287°
2026-05-08 20:22 54.93894 53.41557 31408 ft 423 kts 286°
2026-05-08 20:22 54.94632 53.36576 31683 ft 422 kts 286°
2026-05-08 20:22 54.95112 53.33338 31866 ft 422 kts 285°
2026-05-08 20:23 54.96084 53.26743 32204 ft 421 kts 285°
2026-05-08 20:23 54.96805 53.21834 32430 ft 422 kts 285°
2026-05-08 20:23 54.97526 53.16909 32659 ft 422 kts 285°
2026-05-08 20:23 54.98246 53.11968 32887 ft 422 kts 285°
2026-05-08 20:24 54.98958 53.07068 33123 ft 421 kts 285°
2026-05-08 20:24 54.99677 53.02110 33363 ft 421 kts 285°
2026-05-08 20:24 55.00378 52.97255 33602 ft 420 kts 285°
2026-05-08 20:24 55.01086 52.92331 33806 ft 420 kts 285°
2026-05-08 20:25 55.01794 52.87385 34024 ft 420 kts 285°
2026-05-08 20:25 55.02490 52.82510 34223 ft 420 kts 285°
2026-05-08 20:25 55.03188 52.77605 34396 ft 420 kts 285°
2026-05-08 20:25 55.03895 52.72638 34574 ft 420 kts 285°
2026-05-08 20:26 55.04595 52.67719 34723 ft 421 kts 285°
2026-05-08 20:26 55.05291 52.62810 34840 ft 422 kts 285°
2026-05-08 20:26 55.05994 52.57828 34978 ft 422 kts 284°
2026-05-08 20:26 55.06685 52.52923 35113 ft 422 kts 284°
2026-05-08 20:27 55.07378 52.47982 35233 ft 422 kts 284°
2026-05-08 20:27 55.08071 52.43028 35367 ft 422 kts 284°
2026-05-08 20:27 55.08766 52.38031 35498 ft 421 kts 284°
2026-05-08 20:27 55.09452 52.33082 35614 ft 422 kts 283°
2026-05-08 20:28 55.10132 52.28153 35720 ft 422 kts 283°
2026-05-08 20:28 55.10827 52.23178 35816 ft 422 kts 284°
2026-05-08 20:28 55.12207 52.13289 35828 ft 421 kts 283°
2026-05-08 20:29 55.13567 52.03381 35834 ft 421 kts 283°
2026-05-08 20:29 55.14914 51.93451 35833 ft 421 kts 283°
2026-05-08 20:30 55.16241 51.83581 35836 ft 420 kts 283°
2026-05-08 20:30 55.17570 51.73628 35840 ft 419 kts 283°
2026-05-08 20:31 55.18875 51.63783 35855 ft 420 kts 283°
2026-05-08 20:31 55.20176 51.53904 35856 ft 418 kts 283°
2026-05-08 20:32 55.21467 51.44022 35861 ft 418 kts 283°
2026-05-08 20:32 55.22752 51.34118 35867 ft 418 kts 282°
2026-05-08 20:33 55.24022 51.24229 35866 ft 417 kts 282°
2026-05-08 20:33 55.25274 51.14409 35867 ft 415 kts 282°
2026-05-08 20:34 55.26528 51.04516 35869 ft 416 kts 282°
2026-05-08 20:35 55.28316 50.89738 35885 ft 414 kts 281°
2026-05-08 20:35 55.29454 50.79953 35885 ft 413 kts 281°
2026-05-08 20:36 55.30594 50.70092 35887 ft 412 kts 281°
2026-05-08 20:36 55.31714 50.60318 35894 ft 413 kts 281°
2026-05-08 20:37 55.32835 50.50479 35895 ft 412 kts 281°
2026-05-08 20:37 55.33947 50.40625 35905 ft 411 kts 281°
2026-05-08 20:38 55.35041 50.30854 35898 ft 411 kts 280°
2026-05-08 20:38 55.36128 50.21046 35912 ft 409 kts 280°
2026-05-08 20:39 55.37205 50.11282 35912 ft 408 kts 280°
2026-05-08 20:39 55.38266 50.01561 35919 ft 407 kts 280°
2026-05-08 20:40 55.39034 49.91753 35919 ft 406 kts 275°
2026-05-08 20:40 55.39536 49.81922 35920 ft 407 kts 275°
2026-05-08 20:41 55.40022 49.72048 35922 ft 407 kts 275°
2026-05-08 20:41 55.40499 49.62210 35928 ft 406 kts 275°
2026-05-08 20:42 55.40968 49.52321 35929 ft 406 kts 275°
2026-05-08 20:42 55.41430 49.42440 35926 ft 407 kts 275°
2026-05-08 20:43 55.41888 49.32560 35928 ft 407 kts 274°
2026-05-08 20:43 55.42342 49.22666 35933 ft 407 kts 274°
2026-05-08 20:44 55.42784 49.12789 35935 ft 407 kts 274°
2026-05-08 20:44 55.43215 49.02911 35934 ft 406 kts 274°
2026-05-08 20:45 55.43637 48.93008 35937 ft 406 kts 274°
2026-05-08 20:45 55.44046 48.83171 35943 ft 406 kts 274°
2026-05-08 20:46 55.44452 48.73252 35951 ft 406 kts 274°
2026-05-08 20:46 55.44857 48.63374 35955 ft 406 kts 275°
2026-05-08 20:47 55.45623 48.53583 35956 ft 406 kts 280°
2026-05-08 20:47 55.46958 48.43935 35962 ft 407 kts 285°
2026-05-08 20:48 55.48592 48.34463 35965 ft 407 kts 285°
2026-05-08 20:48 55.50234 48.24956 35969 ft 406 kts 285°
2026-05-08 20:49 55.51872 48.15431 35979 ft 406 kts 285°
2026-05-08 20:49 55.53495 48.05961 35984 ft 405 kts 284°
2026-05-08 20:50 55.55100 47.96517 35988 ft 404 kts 285°
2026-05-08 20:50 55.56703 47.87048 35993 ft 404 kts 285°
2026-05-08 20:51 55.58300 47.77559 36000 ft 403 kts 285°
2026-05-08 20:51 55.59889 47.68072 36001 ft 403 kts 285°
2026-05-08 20:52 55.61462 47.58629 36001 ft 403 kts 285°
2026-05-08 20:52 55.63035 47.49123 35778 ft 403 kts 285°
2026-05-08 20:52 55.63809 47.44441 35438 ft 400 kts 284°
2026-05-08 20:53 55.64586 47.39720 35095 ft 397 kts 284°
2026-05-08 20:53 55.65351 47.35061 34747 ft 393 kts 284°
2026-05-08 20:53 55.66103 47.30444 34342 ft 393 kts 283°
2026-05-08 20:53 55.66853 47.25811 33934 ft 393 kts 284°
2026-05-08 20:54 55.67604 47.21171 33529 ft 394 kts 284°
2026-05-08 20:54 55.68358 47.16519 33122 ft 395 kts 284°
2026-05-08 20:54 55.69113 47.11872 32716 ft 397 kts 284°
2026-05-08 20:54 55.69871 47.07195 32311 ft 397 kts 284°
2026-05-08 20:55 55.70626 47.02532 31905 ft 394 kts 284°
2026-05-08 20:55 55.71367 46.97929 31501 ft 387 kts 284°
2026-05-08 20:55 55.72099 46.93368 31091 ft 381 kts 284°
2026-05-08 20:55 55.72809 46.88926 30687 ft 374 kts 284°
2026-05-08 20:56 55.73504 46.84568 30275 ft 368 kts 284°
2026-05-08 20:56 55.74197 46.80207 29858 ft 362 kts 284°
2026-05-08 20:56 55.74867 46.75980 29448 ft 356 kts 284°
2026-05-08 20:56 55.75522 46.71831 29042 ft 350 kts 284°
2026-05-08 20:57 55.76167 46.67725 28685 ft 341 kts 284°
2026-05-08 20:57 55.76804 46.63679 28369 ft 342 kts 284°
2026-05-08 20:57 55.77435 46.59651 28034 ft 334 kts 284°
2026-05-08 20:57 55.78044 46.55742 27704 ft 327 kts 284°
2026-05-08 20:58 55.78236 46.54435 27596 ft 326 kts 283°
2026-05-08 20:59 55.80104 46.25689 25204 ft 312 kts 273°
2026-05-08 21:00 55.80229 46.21833 24881 ft 310 kts 273°
2026-05-08 21:00 55.80350 46.18064 24577 ft 309 kts 273°
2026-05-08 21:00 55.80469 46.14274 24270 ft 307 kts 273°
2026-05-08 21:00 55.80589 46.10499 23964 ft 305 kts 273°
2026-05-08 21:01 55.80705 46.06777 23658 ft 303 kts 273°
2026-05-08 21:01 55.80820 46.03027 23354 ft 302 kts 273°
2026-05-08 21:01 55.80931 45.99360 23057 ft 300 kts 273°
2026-05-08 21:01 55.81041 45.95662 22755 ft 299 kts 273°
2026-05-08 21:02 55.81150 45.92024 22457 ft 297 kts 273°
2026-05-08 21:02 55.81256 45.88383 22164 ft 296 kts 273°
2026-05-08 21:02 55.81363 45.84723 21859 ft 294 kts 273°
2026-05-08 21:02 55.81467 45.81121 21565 ft 292 kts 273°
2026-05-08 21:03 55.81571 45.77538 21267 ft 290 kts 273°
2026-05-08 21:03 55.81671 45.74022 20965 ft 284 kts 273°
2026-05-08 21:03 55.81768 45.70550 20668 ft 278 kts 273°
2026-05-08 21:03 55.81861 45.67155 20370 ft 272 kts 273°
2026-05-08 21:04 55.81951 45.63874 20075 ft 267 kts 273°
2026-05-08 21:04 55.82038 45.60590 19771 ft 264 kts 273°
2026-05-08 21:04 55.82126 45.57367 19502 ft 263 kts 273°
2026-05-08 21:04 55.82213 45.54077 19240 ft 261 kts 273°
2026-05-08 21:05 55.82296 45.50873 18962 ft 260 kts 273°
2026-05-08 21:05 55.82379 45.47689 18695 ft 259 kts 273°
2026-05-08 21:05 55.82463 45.44498 18420 ft 257 kts 273°
2026-05-08 21:05 55.82543 45.41356 18156 ft 256 kts 273°
2026-05-08 21:06 55.82624 45.38188 17886 ft 254 kts 273°
2026-05-08 21:06 55.82702 45.35066 17611 ft 254 kts 273°
2026-05-08 21:06 55.82778 45.31961 17352 ft 253 kts 273°
2026-05-08 21:06 55.82853 45.28867 17090 ft 252 kts 272°
2026-05-08 21:07 55.82952 45.24721 16731 ft 252 kts 273°
2026-05-08 21:07 55.83002 45.22671 16554 ft 251 kts 273°
2026-05-08 21:07 55.83075 45.19587 16290 ft 251 kts 273°
2026-05-08 21:07 55.83148 45.16471 16019 ft 249 kts 273°
2026-05-08 21:08 55.83219 45.13412 15747 ft 248 kts 273°
2026-05-08 21:08 55.83291 45.10407 15480 ft 247 kts 275°
2026-05-08 21:08 55.83617 45.07425 15198 ft 246 kts 288°
2026-05-08 21:08 55.84366 45.04697 14937 ft 246 kts 301°
2026-05-08 21:09 55.85469 45.02374 14675 ft 249 kts 313°
2026-05-08 21:09 55.86877 45.00583 14410 ft 255 kts 326°
2026-05-08 21:09 55.88560 44.99440 14143 ft 262 kts 339°
2026-05-08 21:09 55.90401 44.99117 13875 ft 271 kts 354°
2026-05-08 21:10 55.92287 44.99565 13610 ft 276 kts
2026-05-08 21:10 55.94156 45.00110 13335 ft 270 kts 353°
2026-05-08 21:10 55.95972 44.99830 13056 ft 256 kts 337°
2026-05-08 21:10 55.97579 44.98716 12795 ft 247 kts 323°
2026-05-08 21:11 55.98926 44.96955 12526 ft 240 kts 311°
2026-05-08 21:11 55.99973 44.94678 12252 ft 236 kts 299°
2026-05-08 21:11 56.00667 44.92058 11974 ft 235 kts 287°
2026-05-08 21:11 56.00989 44.89201 11694 ft 235 kts 276°
2026-05-08 21:12 56.01093 44.86296 11421 ft 235 kts 275°
2026-05-08 21:12 56.01178 44.83374 11144 ft 235 kts 275°
2026-05-08 21:12 56.01258 44.80462 10865 ft 234 kts 275°
2026-05-08 21:12 56.01334 44.77569 10591 ft 233 kts 275°
2026-05-08 21:13 56.01409 44.74707 10320 ft 233 kts 275°
2026-05-08 21:13 56.01482 44.71804 10043 ft 232 kts 275°
2026-05-08 21:13 56.01553 44.68959 9772 ft 232 kts 275°
2026-05-08 21:13 56.01625 44.66068 9492 ft 232 kts 275°
2026-05-08 21:14 56.01695 44.63221 9220 ft 232 kts 275°
2026-05-08 21:14 56.01764 44.60347 8943 ft 232 kts 276°
2026-05-08 21:14 56.01834 44.57447 8669 ft 233 kts 276°
2026-05-08 21:14 56.01902 44.54587 8393 ft 233 kts 276°
2026-05-08 21:15 56.01969 44.51688 8115 ft 233 kts 276°
2026-05-08 21:15 56.02037 44.48789 7836 ft 234 kts 277°
2026-05-08 21:15 56.02103 44.45886 7557 ft 234 kts 277°
2026-05-08 21:15 56.02169 44.42984 7272 ft 235 kts 277°
2026-05-08 21:16 56.02234 44.40095 6996 ft 235 kts 277°
2026-05-08 21:16 56.02298 44.37174 6688 ft 232 kts 278°
2026-05-08 21:16 56.02356 44.34351 6385 ft 221 kts 277°
2026-05-08 21:16 56.02409 44.31688 6087 ft 210 kts 278°
2026-05-08 21:17 56.02460 44.29137 5786 ft 201 kts 278°
2026-05-08 21:17 56.02510 44.26723 5495 ft 196 kts 279°
2026-05-08 21:17 56.02564 44.24268 5212 ft 196 kts 279°
2026-05-08 21:17 56.02617 44.21826 4947 ft 197 kts 279°
2026-05-08 21:18 56.02669 44.19398 4661 ft 197 kts 279°
2026-05-08 21:18 56.02720 44.16943 4453 ft 196 kts 279°
2026-05-08 21:18 56.02766 44.14558 4251 ft 189 kts 280°
2026-05-08 21:18 56.02811 44.12259 4052 ft 183 kts 280°
2026-05-08 21:19 56.02858 44.10005 3876 ft 183 kts 280°
2026-05-08 21:19 56.02905 44.07724 3694 ft 184 kts 281°
2026-05-08 21:19 56.02951 44.05454 3517 ft 184 kts 281°
2026-05-08 21:19 56.02997 44.03169 3336 ft 184 kts 281°
2026-05-08 21:20 56.03043 44.00897 3158 ft 183 kts 280°
2026-05-08 21:20 56.03086 43.98628 3004 ft 181 kts 280°
2026-05-08 21:20 56.03120 43.96466 2897 ft 168 kts 281°
2026-05-08 21:20 56.03154 43.94449 2695 ft 160 kts 281°
2026-05-08 21:21 56.03191 43.92482 2563 ft 157 kts 281°
2026-05-08 21:21 56.03227 43.90558 2360 ft 151 kts 282°
2026-05-08 21:21 56.03268 43.88713 2181 ft 147 kts 283°
2026-05-08 21:21 56.03331 43.86929 2008 ft 141 kts 284°
2026-05-08 21:22 56.03403 43.85167 2006 ft 142 kts 284°
2026-05-08 21:22 56.03476 43.83413 1996 ft 143 kts 284°
2026-05-08 21:22 56.03546 43.81630 1992 ft 143 kts 284°
2026-05-08 21:22 56.03603 43.80166 1990 ft 143 kts 283°
2026-05-08 21:23 56.03670 43.78386 1991 ft 143 kts 283°
2026-05-08 21:23 56.03735 43.76611 1997 ft 143 kts 283°
2026-05-08 21:23 56.03801 43.74832 1994 ft 142 kts 284°
2026-05-08 21:23 56.03977 43.73133 1971 ft 133 kts 310°
2026-05-08 21:24 56.04635 43.72205 1992 ft 120 kts 347°
2026-05-08 21:24 56.05460 43.72226 1999 ft 120 kts 12°
2026-05-08 21:24 56.06273 43.72541 2001 ft 119 kts 10°
2026-05-08 21:24 56.07087 43.72821 1994 ft 119 kts 10°
2026-05-08 21:25 56.07903 43.73101 1996 ft 119 kts 10°
2026-05-08 21:25 56.08715 43.73384 1995 ft 119 kts 11°
2026-05-08 21:25 56.09528 43.73672 1992 ft 119 kts 11°
2026-05-08 21:25 56.10350 43.73967 1994 ft 120 kts 11°
2026-05-08 21:26 56.11160 43.74257 1989 ft 120 kts 11°
2026-05-08 21:26 56.11979 43.74552 1992 ft 120 kts 11°
2026-05-08 21:26 56.12808 43.74854 1990 ft 121 kts 11°
2026-05-08 21:26 56.13627 43.75155 1840 ft 121 kts 11°
2026-05-08 21:27 56.14450 43.75457 1672 ft 121 kts 10°
2026-05-08 21:27 56.15280 43.75763 1509 ft 122 kts 11°
2026-05-08 21:27 56.16107 43.76067 1357 ft 123 kts 10°
2026-05-08 21:27 56.16956 43.76378 1182 ft 125 kts 10°
2026-05-08 21:28 56.17804 43.76689 1018 ft 127 kts 10°
2026-05-08 21:28 56.18685 43.77011 844 ft 128 kts 10°
2026-05-08 21:28 56.19564 43.77334 670 ft 130 kts 10°
2026-05-08 21:28 56.20448 43.77655 500 ft 132 kts 11°
2026-05-08 21:29 56.21357 43.77989 304 ft 134 kts 10°
2026-05-08 21:29 56.22225 43.78300 248 ft 109 kts 10°
2026-05-08 21:29 56.22792 43.78497 247 ft 50 kts 11°
2026-05-08 21:29 56.23032 43.78582 249 ft 31 kts 14°
2026-05-08 21:30 56.23233 43.78639 248 ft 28 kts 14°
2026-05-08 21:30 56.23419 43.78725 247 ft 26 kts 12°
2026-05-08 21:30 56.23595 43.78789 247 ft 25 kts 11°
2026-05-08 21:30 56.23760 43.78854 247 ft 23 kts 12°
2026-05-08 21:31 56.23920 43.78911 247 ft 23 kts 11°
2026-05-08 21:31 56.24066 43.79009 247 ft 22 kts 41°
2026-05-08 21:31 56.24079 43.79191 249 ft 19 kts 129°
2026-05-08 21:31 56.23957 43.79261 250 ft 18 kts 179°